This is the latest recevied weather packets stored in our database for station/object W3BRL. If no packets are shown the sender has not sent any weather packets the latest 10 day(s).
| Time | Temp. | Humidity | Pressure | Rain* | Wind** | Luminosity | Snow |
|---|---|---|---|---|---|---|---|
| 1777909755 | 18.89° C | 41% | 1008.3 hPa | 0 mm | - | 751 W/m² | - |
| 1777909452 | 18.89° C | 42% | 1008.4 hPa | 0 mm | - | 748 W/m² | - |
| 1777909150 | 18.33° C | 41% | 1008.6 hPa | 0 mm | - | 748 W/m² | - |
| 1777908848 | 18.33° C | 41% | 1008.5 hPa | 0 mm | - | 743 W/m² | - |
| 1777908544 | 18.33° C | 41% | 1008.7 hPa | 0 mm | - | 739 W/m² | - |
| 1777908241 | 18.33° C | 41% | 1008.5 hPa | 0 mm | - | 732 W/m² | - |
| 1777907938 | 17.78° C | 42% | 1008.7 hPa | 0 mm | - | 727 W/m² | - |
| 1777907633 | 17.22° C | 43% | 1008.5 hPa | 0 mm | - | 719 W/m² | - |
| 1777907328 | 17.22° C | 42% | 1008.6 hPa | 0 mm | - | 711 W/m² | - |
| 1777907025 | 17.22° C | 42% | 1008.8 hPa | 0 mm | - | 702 W/m² | - |
| 1777906723 | 17.22° C | 42% | 1008.6 hPa | 0 mm | - | 692 W/m² | - |
| 1777906419 | 17.22° C | 43% | 1008.6 hPa | 0 mm | - | 682 W/m² | - |
| 1777906116 | 17.22° C | 43% | 1008.3 hPa | 0 mm | - | 670 W/m² | - |
| 1777905812 | 17.22° C | 41% | 1008.5 hPa | 0 mm | - | 658 W/m² | - |
| 1777905510 | 17.22° C | 41% | 1008.5 hPa | 0 mm | - | 647 W/m² | - |
| 1777905206 | 16.67° C | 43% | 1008.4 hPa | 0 mm | - | 634 W/m² | - |
| 1777904904 | 16.67° C | 43% | 1008.4 hPa | 0 mm | - | 621 W/m² | - |
| 1777904601 | 16.11° C | 43% | 1008.5 hPa | 0 mm | - | 606 W/m² | - |
| 1777904298 | 16.11° C | 43% | 1008.6 hPa | 0 mm | - | 594 W/m² | - |
| 1777903995 | 15.56° C | 44% | 1008.8 hPa | 0 mm | - | 581 W/m² | - |
| 1777903692 | 15.56° C | 44% | 1008.7 hPa | 0 mm | - | 567 W/m² | - |
| 1777903388 | 15.56° C | 44% | 1008.9 hPa | 0 mm | - | 554 W/m² | - |
| 1777903084 | 15° C | 45% | 1008.9 hPa | 0 mm | - | 538 W/m² | - |
| 1777902780 | 15° C | 45% | 1008.9 hPa | 0 mm | - | 526 W/m² | - |
| 1777902479 | 15° C | 45% | 1008.9 hPa | 0 mm | - | 510 W/m² | - |
* Rain latest hour (hover to see other rain measurements)
** Current wind speed in m/s (hover to see current wind gust speed)